St. Cloud, MN

6:52 AM CDT on September 20, 2017 (GMT -0500)
Saint Cloud Regional

Weather History for KSTC - July, 2012

Change the Weather History Date:

Thursday, July 12, 2012

  Actual Average Record
Temperature  
Mean Temperature 73 °F 71 °F  
Max Temperature 86 °F 83 °F 105 °F (1936)
Min Temperature 60 °F 59 °F 43 °F (1975)
Degree Days  
Heating Degree Days 0 1  
Month to date heating degree days 0 12  
Since 1 June heating degree days 30 90  
Since 1 July heating degree days 0 12  
Cooling Degree Days 8 6  
Month to date cooling degree days 147 71  
Year to date cooling degree days 348 191  
Since 1 June cooling degree days 297 166  
Growing Degree Days 22 (Base 50)    
Moisture  
Dew Point 61 °F    
Average Humidity 67    
Maximum Humidity 90    
Minimum Humidity 44    
Precipitation  
Precipitation 0.00 in 0.10 in 2.20 in (1899)
Month to date precipitation 0.81 1.34  
Year to date precipitation 17.49 13.82  
Snow  
Snow 0.00 in 0.00 in 0.00 in ()
Month to date snowfall 0.0 0.0  
Since 1 June snowfall 0.0 0.0  
Since 1 July snowfall 0.0 0.0  
Snow Depth 0.00 in    
Sea Level Pressure  
Sea Level Pressure 30.00 in    
Wind  
Wind Speed 7 mph (SSE)    
Max Wind Speed 18 mph    
Max Gust Speed 23 mph    
Visibility 10 miles    
Events      
T = Trace of Precipitation, MM = Missing Value Source: NWS Daily Summary

Daily Weather History Graph

Daily Weather History Graph

Search for Another Location

Airport or City:

Trip Planner

Search our weather history database for the weather conditions in past years. The results will help you decide how hot, cold, wet, or windy it might be!

Date:

Astronomy

Jul. 12, 2012 Rise Set
Actual Time 5:39 AM CDT 9:03 PM CDT
Civil Twilight 5:02 AM CDT 9:40 PM CDT
Nautical Twilight 4:14 AM CDT 10:28 PM CDT
Astronomical Twilight 3:12 AM CDT 11:29 PM CDT
Moon 12:50 AM CDT (7/12) 3:32 PM CDT (7/12)
Length of Visible Light 16h 37m
Length of Day
15h 24m
Waning Crescent, 35% of the Moon is Illuminated
Jul 12
Waning Crescent
Jul 18
New
Jul 26
First Quarter
Aug 1
Full
Aug 9
Last Quarter

Hourly Weather History & Observations

Time (CDT) Temp. Heat Index Dew Point Humidity Pressure Visibility Wind Dir Wind Speed Gust Speed Precip Events Conditions
12:53 AM 66.0 °F - 59.0 °F 78% 30.04 in 10.0 mi SSE 3.5 mph - N/A   Clear
1:53 AM 63.0 °F - 57.9 °F 84% 30.03 in 10.0 mi SE 4.6 mph - N/A   Clear
2:53 AM 64.0 °F - 59.0 °F 84% 30.03 in 10.0 mi SE 4.6 mph - N/A   Clear
3:53 AM 61.0 °F - 57.9 °F 90% 30.03 in 10.0 mi SSE 4.6 mph - N/A   Clear
4:53 AM 62.1 °F - 57.9 °F 86% 30.02 in 10.0 mi SE 4.6 mph - N/A   Clear
5:53 AM 60.1 °F - 57.9 °F 93% 30.03 in 10.0 mi Calm Calm - N/A   Clear
6:53 AM 66.0 °F - 60.1 °F 81% 30.04 in 10.0 mi SE 4.6 mph - N/A   Clear
7:53 AM 72.0 °F - 60.1 °F 66% 30.04 in 10.0 mi South 6.9 mph - N/A   Clear
8:53 AM 73.9 °F - 59.0 °F 59% 30.03 in 10.0 mi South 9.2 mph - N/A   Clear
9:53 AM 75.9 °F - 59.0 °F 56% 30.03 in 10.0 mi South 9.2 mph - N/A   Clear
10:53 AM 77.0 °F - 60.1 °F 56% 30.00 in 10.0 mi SSE 10.4 mph - N/A   Clear
11:53 AM 82.9 °F 83.3 °F 61.0 °F 47% 29.98 in 10.0 mi SSE 12.7 mph - N/A   Clear
12:53 PM 84.0 °F 84.4 °F 61.0 °F 46% 29.99 in 10.0 mi South 12.7 mph 21.9 mph N/A   Scattered Clouds
1:53 PM 81.0 °F 81.9 °F 62.1 °F 52% 30.01 in 10.0 mi South 8.1 mph - N/A   Scattered Clouds
2:53 PM 81.0 °F 81.7 °F 61.0 °F 50% 30.01 in 10.0 mi South 8.1 mph - N/A   Mostly Cloudy
3:53 PM 80.1 °F 81.2 °F 62.1 °F 54% 30.00 in 10.0 mi South 8.1 mph - N/A   Mostly Cloudy
4:53 PM 81.0 °F 82.5 °F 64.0 °F 56% 29.98 in 10.0 mi South 8.1 mph - N/A   Mostly Cloudy
5:53 PM 79.0 °F - 64.9 °F 62% 29.97 in 10.0 mi SE 5.8 mph - N/A   Overcast
6:53 PM 80.1 °F 81.9 °F 64.9 °F 60% 29.96 in 10.0 mi SSE 10.4 mph - N/A   Overcast
7:53 PM 80.1 °F 81.9 °F 64.9 °F 60% 29.95 in 10.0 mi SSE 9.2 mph - N/A   Clear
8:53 PM 75.0 °F - 64.9 °F 71% 29.95 in 10.0 mi SSE 5.8 mph - N/A   Clear
9:53 PM 73.0 °F - 64.9 °F 76% 29.96 in 10.0 mi SE 3.5 mph - N/A   Clear
10:53 PM 71.1 °F - 64.9 °F 81% 29.96 in 10.0 mi SE 3.5 mph - N/A   Clear
11:53 PM 68.0 °F - 64.0 °F 87% 29.96 in 10.0 mi SE 6.9 mph - N/A   Clear